Location: Mentone
(34.5413°N, 85.5351°W)
Time: 08:54:07
(UTC-06:00)

Vanguard 1 - Visible Passes

Search period start: 24 February 2017 00:00
Search period end: 06 March 2017 00:00
Orbit: 652 x 3832 km, 34.3° (Epoch: 21 February)

Date Brightness Start Highest point End Pass type
(mag) Time Alt. Az. Time Alt. Az. Time Alt. Az.
24 Feb 12.5 18:16:36 10° W 18:31:11 89° S 18:50:21 19° E visible
24 Feb 12.7 20:39:05 10° WNW 20:58:25 77° SSW 21:03:04 66° SE visible
24 Feb 13.5 23:04:06 10° WNW 23:15:46 35° W 23:15:46 35° W visible
25 Feb 12.6 18:37:54 10° W 18:53:02 89° S 19:10:10 24° E visible
25 Feb 12.7 21:00:35 10° WNW 21:20:08 70° SSW 21:22:53 67° S visible
25 Feb 13.7 23:26:24 10° W 23:35:36 27° W 23:35:36 27° W visible
26 Feb 12.6 18:59:13 10° W 19:14:52 86° S 19:30:01 30° ESE visible
26 Feb 12.8 21:22:07 10° WNW 21:41:43 62° SSW 21:42:44 61° SSW visible
26 Feb 13.9 23:49:13 10° W 23:55:28 20° W 23:55:28 20° W visible
27 Feb 12.6 19:20:32 10° W 19:36:41 82° SSW 19:49:56 35° ESE visible
27 Feb 13.0 21:43:48 10° WNW 22:02:39 53° SW 22:02:39 53° SW visible
28 Feb 14.1 00:12:59 10° W 00:15:22 13° W 00:15:22 13° W visible
28 Feb 12.6 19:41:53 10° W 19:58:26 76° SSW 20:09:54 40° SE visible
28 Feb 13.2 22:05:39 10° W 22:22:37 44° SW 22:22:37 44° SW visible
01 Mar 12.4 17:41:38 10° W 17:54:07 89° S 18:16:07 10° E visible
01 Mar 12.7 20:03:15 10° WNW 20:20:06 68° SSW 20:29:55 43° SE visible
01 Mar 13.4 22:27:50 10° W 22:42:39 35° SW 22:42:39 35° SW visible
02 Mar 12.4 18:02:51 10° W 18:15:49 86° S 18:37:16 12° ESE visible
02 Mar 12.8 20:24:42 10° WNW 20:41:40 60° SSW 20:50:00 44° SSE visible
02 Mar 13.6 22:50:33 10° W 23:02:45 27° WSW 23:02:45 27° WSW visible
03 Mar 12.5 18:24:04 10° W 18:37:29 80° SSW 18:57:25 15° ESE visible
03 Mar 13.0 20:46:15 10° W 21:03:11 51° SSW 21:10:11 42° S visible
03 Mar 13.9 23:14:14 10° W 23:22:55 19° WSW 23:22:55 19° WSW visible
04 Mar 12.5 18:45:18 10° W 18:59:06 73° SSW 19:17:40 18° ESE visible
04 Mar 13.2 21:08:01 10° W 21:24:37 42° SW 21:30:25 38° S visible
04 Mar 14.1 23:40:06 10° WSW 23:43:11 12° WSW 23:43:11 12° WSW visible
05 Mar 12.6 19:06:35 10° W 19:20:42 65° SSW 19:37:59 21° SE visible
05 Mar 13.4 21:30:08 10° W 21:46:00 34° SW 21:50:46 32° SSW visible
